Data supplied by UK-AIR on 28/6/2012
All Data GMT hour ending 
Status: R =Ratified P=Provisional,P*=As supplied
,,Weybourne,,,,,,,,,,,,,,,,,,,,,,,
Date,time,"Ozone",status,unit
 
01-01-2010,01:00,86,R,ugm-3
01-01-2010,02:00,86,R,ugm-3
01-01-2010,03:00,88,R,ugm-3
01-01-2010,04:00,88,R,ugm-3
01-01-2010,05:00,86,R,ugm-3
01-01-2010,06:00,86,R,ugm-3
01-01-2010,07:00,86,R,ugm-3
01-01-2010,08:00,88,R,ugm-3
01-01-2010,09:00,88,R,ugm-3
01-01-2010,10:00,88,R,ugm-3
01-01-2010,11:00,84,R,ugm-3
01-01-2010,12:00,78,R,ugm-3
01-01-2010,13:00,78,R,ugm-3
01-01-2010,14:00,80,R,ugm-3
01-01-2010,15:00,74,R,ugm-3
01-01-2010,16:00,62,R,ugm-3
01-01-2010,17:00,62,R,ugm-3
01-01-2010,18:00,52,R,ugm-3
01-01-2010,19:00,56,R,ugm-3
01-01-2010,20:00,54,R,ugm-3
01-01-2010,21:00,50,R,ugm-3
01-01-2010,22:00,50,R,ugm-3
01-01-2010,23:00,46,R,ugm-3
01-01-2010,24:00,42,R,ugm-3
02-01-2010,01:00,40,R,ugm-3
02-01-2010,02:00,42,R,ugm-3
02-01-2010,03:00,42,R,ugm-3
02-01-2010,04:00,42,R,ugm-3
02-01-2010,05:00,50,R,ugm-3
02-01-2010,06:00,54,R,ugm-3
02-01-2010,07:00,54,R,ugm-3
02-01-2010,08:00,54,R,ugm-3
02-01-2010,09:00,52,R,ugm-3
02-01-2010,10:00,56,R,ugm-3
02-01-2010,11:00,58,R,ugm-3
02-01-2010,12:00,54,R,ugm-3
02-01-2010,13:00,54,R,ugm-3
02-01-2010,14:00,52,R,ugm-3
02-01-2010,15:00,48,R,ugm-3
02-01-2010,16:00,48,R,ugm-3
02-01-2010,17:00,50,R,ugm-3
02-01-2010,18:00,48,R,ugm-3
02-01-2010,19:00,46,R,ugm-3
02-01-2010,20:00,68,R,ugm-3
02-01-2010,21:00,66,R,ugm-3
02-01-2010,22:00,68,R,ugm-3
02-01-2010,23:00,66,R,ugm-3
02-01-2010,24:00,64,R,ugm-3
03-01-2010,01:00,62,R,ugm-3
03-01-2010,02:00,62,R,ugm-3
03-01-2010,03:00,58,R,ugm-3
03-01-2010,04:00,52,R,ugm-3
03-01-2010,05:00,54,R,ugm-3
03-01-2010,06:00,52,R,ugm-3
03-01-2010,07:00,44,R,ugm-3
03-01-2010,08:00,44,R,ugm-3
03-01-2010,09:00,46,R,ugm-3
03-01-2010,10:00,46,R,ugm-3
03-01-2010,11:00,48,R,ugm-3
03-01-2010,12:00,50,R,ugm-3
03-01-2010,13:00,50,R,ugm-3
03-01-2010,14:00,50,R,ugm-3
03-01-2010,15:00,48,R,ugm-3
03-01-2010,16:00,48,R,ugm-3
03-01-2010,17:00,46,R,ugm-3
03-01-2010,18:00,42,R,ugm-3
03-01-2010,19:00,46,R,ugm-3
03-01-2010,20:00,48,R,ugm-3
03-01-2010,21:00,50,R,ugm-3
03-01-2010,22:00,50,R,ugm-3
03-01-2010,23:00,46,R,ugm-3
03-01-2010,24:00,46,R,ugm-3
04-01-2010,01:00,42,R,ugm-3
04-01-2010,02:00,40,R,ugm-3
04-01-2010,03:00,38,R,ugm-3
04-01-2010,04:00,36,R,ugm-3
04-01-2010,05:00,32,R,ugm-3
04-01-2010,06:00,38,R,ugm-3
04-01-2010,07:00,32,R,ugm-3
04-01-2010,08:00,36,R,ugm-3
04-01-2010,09:00,42,R,ugm-3
04-01-2010,10:00,48,R,ugm-3
04-01-2010,11:00,50,R,ugm-3
04-01-2010,12:00,56,R,ugm-3
04-01-2010,13:00,60,R,ugm-3
04-01-2010,14:00,64,R,ugm-3
04-01-2010,15:00,60,R,ugm-3
04-01-2010,16:00,42,R,ugm-3
04-01-2010,17:00,36,R,ugm-3
04-01-2010,18:00,32,R,ugm-3
04-01-2010,19:00,22,R,ugm-3
04-01-2010,20:00,18,R,ugm-3
04-01-2010,21:00,22,R,ugm-3
04-01-2010,22:00,28,R,ugm-3
04-01-2010,23:00,20,R,ugm-3
04-01-2010,24:00,18,R,ugm-3
05-01-2010,01:00,22,R,ugm-3
05-01-2010,02:00,20,R,ugm-3
05-01-2010,03:00,14,R,ugm-3
05-01-2010,04:00,18,R,ugm-3
05-01-2010,05:00,26,R,ugm-3
05-01-2010,06:00,28,R,ugm-3
05-01-2010,07:00,28,R,ugm-3
05-01-2010,08:00,30,R,ugm-3
05-01-2010,09:00,34,R,ugm-3
05-01-2010,10:00,36,R,ugm-3
05-01-2010,11:00,38,R,ugm-3
05-01-2010,12:00,34,R,ugm-3
05-01-2010,13:00,34,R,ugm-3
05-01-2010,14:00,34,R,ugm-3
05-01-2010,15:00,36,R,ugm-3
05-01-2010,16:00,30,R,ugm-3
05-01-2010,17:00,22,R,ugm-3
05-01-2010,18:00,16,R,ugm-3
05-01-2010,19:00,14,R,ugm-3
05-01-2010,20:00,16,R,ugm-3
05-01-2010,21:00,18,R,ugm-3
05-01-2010,22:00,24,R,ugm-3
05-01-2010,23:00,28,R,ugm-3
05-01-2010,24:00,20,R,ugm-3
06-01-2010,01:00,32,R,ugm-3
06-01-2010,02:00,30,R,ugm-3
06-01-2010,03:00,26,R,ugm-3
06-01-2010,04:00,28,R,ugm-3
06-01-2010,05:00,32,R,ugm-3
06-01-2010,06:00,66,R,ugm-3
06-01-2010,07:00,68,R,ugm-3
06-01-2010,08:00,62,R,ugm-3
06-01-2010,09:00,60,R,ugm-3
06-01-2010,10:00,62,R,ugm-3
06-01-2010,11:00,78,R,ugm-3
06-01-2010,12:00,84,R,ugm-3
06-01-2010,13:00,86,R,ugm-3
06-01-2010,14:00,86,R,ugm-3
06-01-2010,15:00,82,R,ugm-3
06-01-2010,16:00,84,R,ugm-3
06-01-2010,17:00,84,R,ugm-3
06-01-2010,18:00,88,R,ugm-3
06-01-2010,19:00,86,R,ugm-3
06-01-2010,20:00,86,R,ugm-3
06-01-2010,21:00,86,R,ugm-3
06-01-2010,22:00,88,R,ugm-3
06-01-2010,23:00,88,R,ugm-3
06-01-2010,24:00,88,R,ugm-3
07-01-2010,01:00,92,R,ugm-3
07-01-2010,02:00,90,R,ugm-3
07-01-2010,03:00,86,R,ugm-3
07-01-2010,04:00,84,R,ugm-3
07-01-2010,05:00,84,R,ugm-3
07-01-2010,06:00,78,R,ugm-3
07-01-2010,07:00,68,R,ugm-3
07-01-2010,08:00,68,R,ugm-3
07-01-2010,09:00,82,R,ugm-3
07-01-2010,10:00,94,R,ugm-3
07-01-2010,11:00,100,R,ugm-3
07-01-2010,12:00,86,R,ugm-3
07-01-2010,13:00,74,R,ugm-3
07-01-2010,14:00,68,R,ugm-3
07-01-2010,15:00,68,R,ugm-3
07-01-2010,16:00,74,R,ugm-3
07-01-2010,17:00,76,R,ugm-3
07-01-2010,18:00,76,R,ugm-3
07-01-2010,19:00,76,R,ugm-3
07-01-2010,20:00,74,R,ugm-3
07-01-2010,21:00,76,R,ugm-3
07-01-2010,22:00,70,R,ugm-3
07-01-2010,23:00,70,R,ugm-3
07-01-2010,24:00,70,R,ugm-3
08-01-2010,01:00,70,R,ugm-3
08-01-2010,02:00,70,R,ugm-3
08-01-2010,03:00,76,R,ugm-3
08-01-2010,04:00,74,R,ugm-3
08-01-2010,05:00,76,R,ugm-3
08-01-2010,06:00,70,R,ugm-3
08-01-2010,07:00,58,R,ugm-3
08-01-2010,08:00,50,R,ugm-3
08-01-2010,09:00,58,R,ugm-3
08-01-2010,10:00,52,R,ugm-3
08-01-2010,11:00,56,R,ugm-3
08-01-2010,12:00,66,R,ugm-3
08-01-2010,13:00,66,R,ugm-3
08-01-2010,14:00,72,R,ugm-3
08-01-2010,15:00,74,R,ugm-3
08-01-2010,16:00,76,R,ugm-3
08-01-2010,17:00,76,R,ugm-3
08-01-2010,18:00,80,R,ugm-3
08-01-2010,19:00,80,R,ugm-3
08-01-2010,20:00,76,R,ugm-3
08-01-2010,21:00,74,R,ugm-3
08-01-2010,22:00,72,R,ugm-3
08-01-2010,23:00,74,R,ugm-3
08-01-2010,24:00,76,R,ugm-3
09-01-2010,01:00,72,R,ugm-3
09-01-2010,02:00,66,R,ugm-3
09-01-2010,03:00,64,R,ugm-3
09-01-2010,04:00,70,R,ugm-3
09-01-2010,05:00,72,R,ugm-3
09-01-2010,06:00,74,R,ugm-3
09-01-2010,07:00,74,R,ugm-3
09-01-2010,08:00,74,R,ugm-3
09-01-2010,09:00,76,R,ugm-3
09-01-2010,10:00,72,R,ugm-3
09-01-2010,11:00,76,R,ugm-3
09-01-2010,12:00,78,R,ugm-3
09-01-2010,13:00,76,R,ugm-3
09-01-2010,14:00,80,R,ugm-3
09-01-2010,15:00,80,R,ugm-3
09-01-2010,16:00,80,R,ugm-3
09-01-2010,17:00,82,R,ugm-3
09-01-2010,18:00,84,R,ugm-3
09-01-2010,19:00,80,R,ugm-3
09-01-2010,20:00,82,R,ugm-3
09-01-2010,21:00,80,R,ugm-3
09-01-2010,22:00,80,R,ugm-3
09-01-2010,23:00,82,R,ugm-3
09-01-2010,24:00,84,R,ugm-3
10-01-2010,01:00,86,R,ugm-3
10-01-2010,02:00,84,R,ugm-3
10-01-2010,03:00,82,R,ugm-3
10-01-2010,04:00,82,R,ugm-3
10-01-2010,05:00,82,R,ugm-3
10-01-2010,06:00,82,R,ugm-3
10-01-2010,07:00,82,R,ugm-3
10-01-2010,08:00,84,R,ugm-3
10-01-2010,09:00,84,R,ugm-3
10-01-2010,10:00,84,R,ugm-3
10-01-2010,11:00,84,R,ugm-3
10-01-2010,12:00,82,R,ugm-3
10-01-2010,13:00,82,R,ugm-3
10-01-2010,14:00,82,R,ugm-3
10-01-2010,15:00,82,R,ugm-3
10-01-2010,16:00,80,R,ugm-3
10-01-2010,17:00,80,R,ugm-3
10-01-2010,18:00,80,R,ugm-3
10-01-2010,19:00,80,R,ugm-3
10-01-2010,20:00,78,R,ugm-3
10-01-2010,21:00,78,R,ugm-3
10-01-2010,22:00,78,R,ugm-3
10-01-2010,23:00,74,R,ugm-3
10-01-2010,24:00,74,R,ugm-3
11-01-2010,01:00,74,R,ugm-3
11-01-2010,02:00,70,R,ugm-3
11-01-2010,03:00,70,R,ugm-3
11-01-2010,04:00,70,R,ugm-3
11-01-2010,05:00,76,R,ugm-3
11-01-2010,06:00,74,R,ugm-3
11-01-2010,07:00,74,R,ugm-3
11-01-2010,08:00,74,R,ugm-3
11-01-2010,09:00,76,R,ugm-3
11-01-2010,10:00,76,R,ugm-3
11-01-2010,11:00,78,R,ugm-3
11-01-2010,12:00,78,R,ugm-3
11-01-2010,13:00,78,R,ugm-3
11-01-2010,14:00,74,R,ugm-3
11-01-2010,15:00,76,R,ugm-3
11-01-2010,16:00,74,R,ugm-3
11-01-2010,17:00,68,R,ugm-3
11-01-2010,18:00,72,R,ugm-3
11-01-2010,19:00,72,R,ugm-3
11-01-2010,20:00,72,R,ugm-3
11-01-2010,21:00,68,R,ugm-3
11-01-2010,22:00,70,R,ugm-3
11-01-2010,23:00,72,R,ugm-3
11-01-2010,24:00,70,R,ugm-3
12-01-2010,01:00,70,R,ugm-3
12-01-2010,02:00,70,R,ugm-3
12-01-2010,03:00,68,R,ugm-3
12-01-2010,04:00,64,R,ugm-3
12-01-2010,05:00,66,R,ugm-3
12-01-2010,06:00,64,R,ugm-3
12-01-2010,07:00,68,R,ugm-3
12-01-2010,08:00,64,R,ugm-3
12-01-2010,09:00,64,R,ugm-3
12-01-2010,10:00,68,R,ugm-3
12-01-2010,11:00,66,R,ugm-3
12-01-2010,12:00,68,R,ugm-3
12-01-2010,13:00,66,R,ugm-3
12-01-2010,14:00,52,R,ugm-3
12-01-2010,15:00,48,R,ugm-3
12-01-2010,16:00,,,
12-01-2010,17:00,54,R,ugm-3
12-01-2010,18:00,50,R,ugm-3
12-01-2010,19:00,48,R,ugm-3
12-01-2010,20:00,28,R,ugm-3
12-01-2010,21:00,18,R,ugm-3
12-01-2010,22:00,14,R,ugm-3
12-01-2010,23:00,14,R,ugm-3
12-01-2010,24:00,14,R,ugm-3
13-01-2010,01:00,18,R,ugm-3
13-01-2010,02:00,20,R,ugm-3
13-01-2010,03:00,18,R,ugm-3
13-01-2010,04:00,16,R,ugm-3
13-01-2010,05:00,18,R,ugm-3
13-01-2010,06:00,16,R,ugm-3
13-01-2010,07:00,16,R,ugm-3
13-01-2010,08:00,18,R,ugm-3
13-01-2010,09:00,22,R,ugm-3
13-01-2010,10:00,28,R,ugm-3
13-01-2010,11:00,32,R,ugm-3
13-01-2010,12:00,32,R,ugm-3
13-01-2010,13:00,30,R,ugm-3
13-01-2010,14:00,34,R,ugm-3
13-01-2010,15:00,36,R,ugm-3
13-01-2010,16:00,34,R,ugm-3
13-01-2010,17:00,28,R,ugm-3
13-01-2010,18:00,26,R,ugm-3
13-01-2010,19:00,30,R,ugm-3
13-01-2010,20:00,30,R,ugm-3
13-01-2010,21:00,28,R,ugm-3
13-01-2010,22:00,24,R,ugm-3
13-01-2010,23:00,20,R,ugm-3
13-01-2010,24:00,18,R,ugm-3
14-01-2010,01:00,20,R,ugm-3
14-01-2010,02:00,22,R,ugm-3
14-01-2010,03:00,26,R,ugm-3
14-01-2010,04:00,26,R,ugm-3
14-01-2010,05:00,22,R,ugm-3
14-01-2010,06:00,22,R,ugm-3
14-01-2010,07:00,22,R,ugm-3
14-01-2010,08:00,22,R,ugm-3
14-01-2010,09:00,24,R,ugm-3
14-01-2010,10:00,26,R,ugm-3
14-01-2010,11:00,22,R,ugm-3
14-01-2010,12:00,26,R,ugm-3
14-01-2010,13:00,34,R,ugm-3
14-01-2010,14:00,36,R,ugm-3
14-01-2010,15:00,26,R,ugm-3
14-01-2010,16:00,12,R,ugm-3
14-01-2010,17:00,18,R,ugm-3
14-01-2010,18:00,12,R,ugm-3
14-01-2010,19:00,16,R,ugm-3
14-01-2010,20:00,20,R,ugm-3
14-01-2010,21:00,14,R,ugm-3
14-01-2010,22:00,12,R,ugm-3
14-01-2010,23:00,12,R,ugm-3
14-01-2010,24:00,10,R,ugm-3
15-01-2010,01:00,10,R,ugm-3
15-01-2010,02:00,12,R,ugm-3
15-01-2010,03:00,10,R,ugm-3
15-01-2010,04:00,10,R,ugm-3
15-01-2010,05:00,10,R,ugm-3
15-01-2010,06:00,10,R,ugm-3
15-01-2010,07:00,8,R,ugm-3
15-01-2010,08:00,8,R,ugm-3
15-01-2010,09:00,12,R,ugm-3
15-01-2010,10:00,26,R,ugm-3
15-01-2010,11:00,32,R,ugm-3
15-01-2010,12:00,28,R,ugm-3
15-01-2010,13:00,32,R,ugm-3
15-01-2010,14:00,24,R,ugm-3
15-01-2010,15:00,20,R,ugm-3
15-01-2010,16:00,16,R,ugm-3
15-01-2010,17:00,18,R,ugm-3
15-01-2010,18:00,24,R,ugm-3
15-01-2010,19:00,38,R,ugm-3
15-01-2010,20:00,42,R,ugm-3
15-01-2010,21:00,46,R,ugm-3
15-01-2010,22:00,46,R,ugm-3
15-01-2010,23:00,44,R,ugm-3
15-01-2010,24:00,36,R,ugm-3
16-01-2010,01:00,36,R,ugm-3
16-01-2010,02:00,44,R,ugm-3
16-01-2010,03:00,50,R,ugm-3
16-01-2010,04:00,46,R,ugm-3
16-01-2010,05:00,32,R,ugm-3
16-01-2010,06:00,24,R,ugm-3
16-01-2010,07:00,36,R,ugm-3
16-01-2010,08:00,42,R,ugm-3
16-01-2010,09:00,50,R,ugm-3
16-01-2010,10:00,50,R,ugm-3
16-01-2010,11:00,50,R,ugm-3
16-01-2010,12:00,52,R,ugm-3
16-01-2010,13:00,52,R,ugm-3
16-01-2010,14:00,48,R,ugm-3
16-01-2010,15:00,48,R,ugm-3
16-01-2010,16:00,46,R,ugm-3
16-01-2010,17:00,44,R,ugm-3
16-01-2010,18:00,42,R,ugm-3
16-01-2010,19:00,40,R,ugm-3
16-01-2010,20:00,40,R,ugm-3
16-01-2010,21:00,38,R,ugm-3
16-01-2010,22:00,36,R,ugm-3
16-01-2010,23:00,36,R,ugm-3
16-01-2010,24:00,34,R,ugm-3
17-01-2010,01:00,32,R,ugm-3
17-01-2010,02:00,26,R,ugm-3
17-01-2010,03:00,18,R,ugm-3
17-01-2010,04:00,20,R,ugm-3
17-01-2010,05:00,26,R,ugm-3
17-01-2010,06:00,38,R,ugm-3
17-01-2010,07:00,44,R,ugm-3
17-01-2010,08:00,50,R,ugm-3
17-01-2010,09:00,56,R,ugm-3
17-01-2010,10:00,60,R,ugm-3
17-01-2010,11:00,62,R,ugm-3
17-01-2010,12:00,64,R,ugm-3
17-01-2010,13:00,66,R,ugm-3
17-01-2010,14:00,70,R,ugm-3
17-01-2010,15:00,72,R,ugm-3
17-01-2010,16:00,70,R,ugm-3
17-01-2010,17:00,68,R,ugm-3
17-01-2010,18:00,68,R,ugm-3
17-01-2010,19:00,64,R,ugm-3
17-01-2010,20:00,56,R,ugm-3
17-01-2010,21:00,52,R,ugm-3
17-01-2010,22:00,52,R,ugm-3
17-01-2010,23:00,56,R,ugm-3
17-01-2010,24:00,54,R,ugm-3
18-01-2010,01:00,56,R,ugm-3
18-01-2010,02:00,52,R,ugm-3
18-01-2010,03:00,48,R,ugm-3
18-01-2010,04:00,48,R,ugm-3
18-01-2010,05:00,50,R,ugm-3
18-01-2010,06:00,52,R,ugm-3
18-01-2010,07:00,52,R,ugm-3
18-01-2010,08:00,54,R,ugm-3
18-01-2010,09:00,54,R,ugm-3
18-01-2010,10:00,56,R,ugm-3
18-01-2010,11:00,58,R,ugm-3
18-01-2010,12:00,60,R,ugm-3
18-01-2010,13:00,60,R,ugm-3
18-01-2010,14:00,60,R,ugm-3
18-01-2010,15:00,56,R,ugm-3
18-01-2010,16:00,56,R,ugm-3
18-01-2010,17:00,54,R,ugm-3
18-01-2010,18:00,50,R,ugm-3
18-01-2010,19:00,44,R,ugm-3
18-01-2010,20:00,42,R,ugm-3
18-01-2010,21:00,40,R,ugm-3
18-01-2010,22:00,40,R,ugm-3
18-01-2010,23:00,36,R,ugm-3
18-01-2010,24:00,30,R,ugm-3
19-01-2010,01:00,32,R,ugm-3
19-01-2010,02:00,26,R,ugm-3
19-01-2010,03:00,26,R,ugm-3
19-01-2010,04:00,22,R,ugm-3
19-01-2010,05:00,30,R,ugm-3
19-01-2010,06:00,30,R,ugm-3
19-01-2010,07:00,26,R,ugm-3
19-01-2010,08:00,28,R,ugm-3
19-01-2010,09:00,34,R,ugm-3
19-01-2010,10:00,32,R,ugm-3
19-01-2010,11:00,40,R,ugm-3
19-01-2010,12:00,48,R,ugm-3
19-01-2010,13:00,50,R,ugm-3
19-01-2010,14:00,50,R,ugm-3
19-01-2010,15:00,56,R,ugm-3
19-01-2010,16:00,64,R,ugm-3
19-01-2010,17:00,60,R,ugm-3
19-01-2010,18:00,64,R,ugm-3
19-01-2010,19:00,66,R,ugm-3
19-01-2010,20:00,60,R,ugm-3
19-01-2010,21:00,40,R,ugm-3
19-01-2010,22:00,42,R,ugm-3
19-01-2010,23:00,40,R,ugm-3
19-01-2010,24:00,42,R,ugm-3
20-01-2010,01:00,50,R,ugm-3
20-01-2010,02:00,50,R,ugm-3
20-01-2010,03:00,48,R,ugm-3
20-01-2010,04:00,52,R,ugm-3
20-01-2010,05:00,46,R,ugm-3
20-01-2010,06:00,46,R,ugm-3
20-01-2010,07:00,42,R,ugm-3
20-01-2010,08:00,42,R,ugm-3
20-01-2010,09:00,38,R,ugm-3
20-01-2010,10:00,38,R,ugm-3
20-01-2010,11:00,42,R,ugm-3
20-01-2010,12:00,46,R,ugm-3
20-01-2010,13:00,44,R,ugm-3
20-01-2010,14:00,38,R,ugm-3
20-01-2010,15:00,38,R,ugm-3
20-01-2010,16:00,30,R,ugm-3
20-01-2010,17:00,32,R,ugm-3
20-01-2010,18:00,34,R,ugm-3
20-01-2010,19:00,44,R,ugm-3
20-01-2010,20:00,42,R,ugm-3
20-01-2010,21:00,38,R,ugm-3
20-01-2010,22:00,38,R,ugm-3
20-01-2010,23:00,38,R,ugm-3
20-01-2010,24:00,34,R,ugm-3
21-01-2010,01:00,30,R,ugm-3
21-01-2010,02:00,20,R,ugm-3
21-01-2010,03:00,20,R,ugm-3
21-01-2010,04:00,18,R,ugm-3
21-01-2010,05:00,14,R,ugm-3
21-01-2010,06:00,32,R,ugm-3
21-01-2010,07:00,48,R,ugm-3
21-01-2010,08:00,40,R,ugm-3
21-01-2010,09:00,36,R,ugm-3
21-01-2010,10:00,38,R,ugm-3
21-01-2010,11:00,36,R,ugm-3
21-01-2010,12:00,38,R,ugm-3
21-01-2010,13:00,36,R,ugm-3
21-01-2010,14:00,40,R,ugm-3
21-01-2010,15:00,36,R,ugm-3
21-01-2010,16:00,32,R,ugm-3
21-01-2010,17:00,28,R,ugm-3
21-01-2010,18:00,32,R,ugm-3
21-01-2010,19:00,34,R,ugm-3
21-01-2010,20:00,34,R,ugm-3
21-01-2010,21:00,36,R,ugm-3
21-01-2010,22:00,36,R,ugm-3
21-01-2010,23:00,26,R,ugm-3
21-01-2010,24:00,22,R,ugm-3
22-01-2010,01:00,26,R,ugm-3
22-01-2010,02:00,24,R,ugm-3
22-01-2010,03:00,20,R,ugm-3
22-01-2010,04:00,18,R,ugm-3
22-01-2010,05:00,18,R,ugm-3
22-01-2010,06:00,22,R,ugm-3
22-01-2010,07:00,32,R,ugm-3
22-01-2010,08:00,32,R,ugm-3
22-01-2010,09:00,34,R,ugm-3
22-01-2010,10:00,34,R,ugm-3
22-01-2010,11:00,34,R,ugm-3
22-01-2010,12:00,32,R,ugm-3
22-01-2010,13:00,26,R,ugm-3
22-01-2010,14:00,28,R,ugm-3
22-01-2010,15:00,28,R,ugm-3
22-01-2010,16:00,26,R,ugm-3
22-01-2010,17:00,34,R,ugm-3
22-01-2010,18:00,40,R,ugm-3
22-01-2010,19:00,40,R,ugm-3
22-01-2010,20:00,40,R,ugm-3
22-01-2010,21:00,38,R,ugm-3
22-01-2010,22:00,38,R,ugm-3
22-01-2010,23:00,36,R,ugm-3
22-01-2010,24:00,38,R,ugm-3
23-01-2010,01:00,42,R,ugm-3
23-01-2010,02:00,46,R,ugm-3
23-01-2010,03:00,48,R,ugm-3
23-01-2010,04:00,48,R,ugm-3
23-01-2010,05:00,30,R,ugm-3
23-01-2010,06:00,8,R,ugm-3
23-01-2010,07:00,8,R,ugm-3
23-01-2010,08:00,6,R,ugm-3
23-01-2010,09:00,12,R,ugm-3
23-01-2010,10:00,18,R,ugm-3
23-01-2010,11:00,24,R,ugm-3
23-01-2010,12:00,36,R,ugm-3
23-01-2010,13:00,42,R,ugm-3
23-01-2010,14:00,42,R,ugm-3
23-01-2010,15:00,38,R,ugm-3
23-01-2010,16:00,36,R,ugm-3
23-01-2010,17:00,34,R,ugm-3
23-01-2010,18:00,34,R,ugm-3
23-01-2010,19:00,32,R,ugm-3
23-01-2010,20:00,30,R,ugm-3
23-01-2010,21:00,26,R,ugm-3
23-01-2010,22:00,28,R,ugm-3
23-01-2010,23:00,32,R,ugm-3
23-01-2010,24:00,32,R,ugm-3
24-01-2010,01:00,32,R,ugm-3
24-01-2010,02:00,28,R,ugm-3
24-01-2010,03:00,24,R,ugm-3
24-01-2010,04:00,20,R,ugm-3
24-01-2010,05:00,18,R,ugm-3
24-01-2010,06:00,18,R,ugm-3
24-01-2010,07:00,18,R,ugm-3
24-01-2010,08:00,14,R,ugm-3
24-01-2010,09:00,16,R,ugm-3
24-01-2010,10:00,20,R,ugm-3
24-01-2010,11:00,22,R,ugm-3
24-01-2010,12:00,24,R,ugm-3
24-01-2010,13:00,26,R,ugm-3
24-01-2010,14:00,28,R,ugm-3
24-01-2010,15:00,26,R,ugm-3
24-01-2010,16:00,26,R,ugm-3
24-01-2010,17:00,26,R,ugm-3
24-01-2010,18:00,28,R,ugm-3
24-01-2010,19:00,36,R,ugm-3
24-01-2010,20:00,28,R,ugm-3
24-01-2010,21:00,32,R,ugm-3
24-01-2010,22:00,46,R,ugm-3
24-01-2010,23:00,42,R,ugm-3
24-01-2010,24:00,36,R,ugm-3
25-01-2010,01:00,28,R,ugm-3
25-01-2010,02:00,18,R,ugm-3
25-01-2010,03:00,20,R,ugm-3
25-01-2010,04:00,26,R,ugm-3
25-01-2010,05:00,44,R,ugm-3
25-01-2010,06:00,54,R,ugm-3
25-01-2010,07:00,58,R,ugm-3
25-01-2010,08:00,56,R,ugm-3
25-01-2010,09:00,58,R,ugm-3
25-01-2010,10:00,60,R,ugm-3
25-01-2010,11:00,62,R,ugm-3
25-01-2010,12:00,60,R,ugm-3
25-01-2010,13:00,62,R,ugm-3
25-01-2010,14:00,66,R,ugm-3
25-01-2010,15:00,64,R,ugm-3
25-01-2010,16:00,64,R,ugm-3
25-01-2010,17:00,56,R,ugm-3
25-01-2010,18:00,56,R,ugm-3
25-01-2010,19:00,62,R,ugm-3
25-01-2010,20:00,72,R,ugm-3
25-01-2010,21:00,78,R,ugm-3
25-01-2010,22:00,74,R,ugm-3
25-01-2010,23:00,72,R,ugm-3
25-01-2010,24:00,72,R,ugm-3
26-01-2010,01:00,74,R,ugm-3
26-01-2010,02:00,,,
26-01-2010,03:00,,,
26-01-2010,04:00,,,
26-01-2010,05:00,72,R,ugm-3
26-01-2010,06:00,84,R,ugm-3
26-01-2010,07:00,84,R,ugm-3
26-01-2010,08:00,80,R,ugm-3
26-01-2010,09:00,74,R,ugm-3
26-01-2010,10:00,80,R,ugm-3
26-01-2010,11:00,84,R,ugm-3
26-01-2010,12:00,90,R,ugm-3
26-01-2010,13:00,94,R,ugm-3
26-01-2010,14:00,100,R,ugm-3
26-01-2010,15:00,98,R,ugm-3
26-01-2010,16:00,100,R,ugm-3
26-01-2010,17:00,98,R,ugm-3
26-01-2010,18:00,96,R,ugm-3
26-01-2010,19:00,100,R,ugm-3
26-01-2010,20:00,100,R,ugm-3
26-01-2010,21:00,94,R,ugm-3
26-01-2010,22:00,88,R,ugm-3
26-01-2010,23:00,76,R,ugm-3
26-01-2010,24:00,80,R,ugm-3
27-01-2010,01:00,84,R,ugm-3
27-01-2010,02:00,82,R,ugm-3
27-01-2010,03:00,84,R,ugm-3
27-01-2010,04:00,84,R,ugm-3
27-01-2010,05:00,78,R,ugm-3
27-01-2010,06:00,70,R,ugm-3
27-01-2010,07:00,60,R,ugm-3
27-01-2010,08:00,44,R,ugm-3
27-01-2010,09:00,36,R,ugm-3
27-01-2010,10:00,36,R,ugm-3
27-01-2010,11:00,36,R,ugm-3
27-01-2010,12:00,34,R,ugm-3
27-01-2010,13:00,36,R,ugm-3
27-01-2010,14:00,34,R,ugm-3
27-01-2010,15:00,36,R,ugm-3
27-01-2010,16:00,44,R,ugm-3
27-01-2010,17:00,50,R,ugm-3
27-01-2010,18:00,52,R,ugm-3
27-01-2010,19:00,58,R,ugm-3
27-01-2010,20:00,80,R,ugm-3
27-01-2010,21:00,90,R,ugm-3
27-01-2010,22:00,88,R,ugm-3
27-01-2010,23:00,84,R,ugm-3
27-01-2010,24:00,80,R,ugm-3
28-01-2010,01:00,80,R,ugm-3
28-01-2010,02:00,90,R,ugm-3
28-01-2010,03:00,88,R,ugm-3
28-01-2010,04:00,88,R,ugm-3
28-01-2010,05:00,86,R,ugm-3
28-01-2010,06:00,88,R,ugm-3
28-01-2010,07:00,68,R,ugm-3
28-01-2010,08:00,60,R,ugm-3
28-01-2010,09:00,62,R,ugm-3
28-01-2010,10:00,68,R,ugm-3
28-01-2010,11:00,64,R,ugm-3
28-01-2010,12:00,70,R,ugm-3
28-01-2010,13:00,64,R,ugm-3
28-01-2010,14:00,66,R,ugm-3
28-01-2010,15:00,66,R,ugm-3
28-01-2010,16:00,72,R,ugm-3
28-01-2010,17:00,68,R,ugm-3
28-01-2010,18:00,66,R,ugm-3
28-01-2010,19:00,58,R,ugm-3
28-01-2010,20:00,48,R,ugm-3
28-01-2010,21:00,52,R,ugm-3
28-01-2010,22:00,54,R,ugm-3
28-01-2010,23:00,58,R,ugm-3
28-01-2010,24:00,58,R,ugm-3
29-01-2010,01:00,62,R,ugm-3
29-01-2010,02:00,58,R,ugm-3
29-01-2010,03:00,58,R,ugm-3
29-01-2010,04:00,62,R,ugm-3
29-01-2010,05:00,64,R,ugm-3
29-01-2010,06:00,62,R,ugm-3
29-01-2010,07:00,60,R,ugm-3
29-01-2010,08:00,60,R,ugm-3
29-01-2010,09:00,78,R,ugm-3
29-01-2010,10:00,80,R,ugm-3
29-01-2010,11:00,86,R,ugm-3
29-01-2010,12:00,86,R,ugm-3
29-01-2010,13:00,88,R,ugm-3
29-01-2010,14:00,88,R,ugm-3
29-01-2010,15:00,90,R,ugm-3
29-01-2010,16:00,90,R,ugm-3
29-01-2010,17:00,84,R,ugm-3
29-01-2010,18:00,84,R,ugm-3
29-01-2010,19:00,76,R,ugm-3
29-01-2010,20:00,70,R,ugm-3
29-01-2010,21:00,70,R,ugm-3
29-01-2010,22:00,70,R,ugm-3
29-01-2010,23:00,70,R,ugm-3
29-01-2010,24:00,70,R,ugm-3
30-01-2010,01:00,70,R,ugm-3
30-01-2010,02:00,70,R,ugm-3
30-01-2010,03:00,78,R,ugm-3
30-01-2010,04:00,84,R,ugm-3
30-01-2010,05:00,78,R,ugm-3
30-01-2010,06:00,76,R,ugm-3
30-01-2010,07:00,74,R,ugm-3
30-01-2010,08:00,76,R,ugm-3
30-01-2010,09:00,78,R,ugm-3
30-01-2010,10:00,72,R,ugm-3
30-01-2010,11:00,64,R,ugm-3
30-01-2010,12:00,62,R,ugm-3
30-01-2010,13:00,64,R,ugm-3
30-01-2010,14:00,64,R,ugm-3
30-01-2010,15:00,64,R,ugm-3
30-01-2010,16:00,66,R,ugm-3
30-01-2010,17:00,66,R,ugm-3
30-01-2010,18:00,68,R,ugm-3
30-01-2010,19:00,66,R,ugm-3
30-01-2010,20:00,66,R,ugm-3
30-01-2010,21:00,64,R,ugm-3
30-01-2010,22:00,56,R,ugm-3
30-01-2010,23:00,52,R,ugm-3
30-01-2010,24:00,48,R,ugm-3
31-01-2010,01:00,44,R,ugm-3
31-01-2010,02:00,46,R,ugm-3
31-01-2010,03:00,48,R,ugm-3
31-01-2010,04:00,48,R,ugm-3
31-01-2010,05:00,48,R,ugm-3
31-01-2010,06:00,50,R,ugm-3
31-01-2010,07:00,52,R,ugm-3
31-01-2010,08:00,52,R,ugm-3
31-01-2010,09:00,54,R,ugm-3
31-01-2010,10:00,54,R,ugm-3
31-01-2010,11:00,56,R,ugm-3
31-01-2010,12:00,58,R,ugm-3
31-01-2010,13:00,62,R,ugm-3
31-01-2010,14:00,62,R,ugm-3
31-01-2010,15:00,62,R,ugm-3
31-01-2010,16:00,58,R,ugm-3
31-01-2010,17:00,52,R,ugm-3
31-01-2010,18:00,46,R,ugm-3
31-01-2010,19:00,44,R,ugm-3
31-01-2010,20:00,44,R,ugm-3
31-01-2010,21:00,50,R,ugm-3
31-01-2010,22:00,48,R,ugm-3
31-01-2010,23:00,52,R,ugm-3
31-01-2010,24:00,46,R,ugm-3
01-02-2010,01:00,50,R,ugm-3
01-02-2010,02:00,54,R,ugm-3
01-02-2010,03:00,56,R,ugm-3
01-02-2010,04:00,60,R,ugm-3
01-02-2010,05:00,66,R,ugm-3
01-02-2010,06:00,68,R,ugm-3
01-02-2010,07:00,70,R,ugm-3
01-02-2010,08:00,68,R,ugm-3
01-02-2010,09:00,66,R,ugm-3
01-02-2010,10:00,64,R,ugm-3
01-02-2010,11:00,64,R,ugm-3
01-02-2010,12:00,62,R,ugm-3
01-02-2010,13:00,62,R,ugm-3
01-02-2010,14:00,62,R,ugm-3
01-02-2010,15:00,56,R,ugm-3
01-02-2010,16:00,54,R,ugm-3
01-02-2010,17:00,46,R,ugm-3
01-02-2010,18:00,38,R,ugm-3
01-02-2010,19:00,42,R,ugm-3
01-02-2010,20:00,36,R,ugm-3
01-02-2010,21:00,36,R,ugm-3
01-02-2010,22:00,34,R,ugm-3
01-02-2010,23:00,32,R,ugm-3
01-02-2010,24:00,38,R,ugm-3
02-02-2010,01:00,46,R,ugm-3
02-02-2010,02:00,54,R,ugm-3
02-02-2010,03:00,58,R,ugm-3
02-02-2010,04:00,58,R,ugm-3
02-02-2010,05:00,56,R,ugm-3
02-02-2010,06:00,62,R,ugm-3
02-02-2010,07:00,64,R,ugm-3
02-02-2010,08:00,62,R,ugm-3
02-02-2010,09:00,62,R,ugm-3
02-02-2010,10:00,62,R,ugm-3
02-02-2010,11:00,60,R,ugm-3
02-02-2010,12:00,58,R,ugm-3
02-02-2010,13:00,58,R,ugm-3
02-02-2010,14:00,60,R,ugm-3
02-02-2010,15:00,60,R,ugm-3
02-02-2010,16:00,74,R,ugm-3
02-02-2010,17:00,86,R,ugm-3
02-02-2010,18:00,84,R,ugm-3
02-02-2010,19:00,86,R,ugm-3
02-02-2010,20:00,82,R,ugm-3
02-02-2010,21:00,72,R,ugm-3
02-02-2010,22:00,58,R,ugm-3
02-02-2010,23:00,52,R,ugm-3
02-02-2010,24:00,50,R,ugm-3
03-02-2010,01:00,52,R,ugm-3
03-02-2010,02:00,54,R,ugm-3
03-02-2010,03:00,50,R,ugm-3
03-02-2010,04:00,46,R,ugm-3
03-02-2010,05:00,44,R,ugm-3
03-02-2010,06:00,44,R,ugm-3
03-02-2010,07:00,44,R,ugm-3
03-02-2010,08:00,42,R,ugm-3
03-02-2010,09:00,44,R,ugm-3
03-02-2010,10:00,46,R,ugm-3
03-02-2010,11:00,50,R,ugm-3
03-02-2010,12:00,54,R,ugm-3
03-02-2010,13:00,60,R,ugm-3
03-02-2010,14:00,56,R,ugm-3
03-02-2010,15:00,50,R,ugm-3
03-02-2010,16:00,42,R,ugm-3
03-02-2010,17:00,34,R,ugm-3
03-02-2010,18:00,34,R,ugm-3
03-02-2010,19:00,28,R,ugm-3
03-02-2010,20:00,46,R,ugm-3
03-02-2010,21:00,50,R,ugm-3
03-02-2010,22:00,50,R,ugm-3
03-02-2010,23:00,46,R,ugm-3
03-02-2010,24:00,46,R,ugm-3
04-02-2010,01:00,40,R,ugm-3
04-02-2010,02:00,30,R,ugm-3
04-02-2010,03:00,44,R,ugm-3
04-02-2010,04:00,38,R,ugm-3
04-02-2010,05:00,26,R,ugm-3
04-02-2010,06:00,14,R,ugm-3
04-02-2010,07:00,12,R,ugm-3
04-02-2010,08:00,20,R,ugm-3
04-02-2010,09:00,22,R,ugm-3
04-02-2010,10:00,30,R,ugm-3
04-02-2010,11:00,32,R,ugm-3
04-02-2010,12:00,44,R,ugm-3
04-02-2010,13:00,38,R,ugm-3
04-02-2010,14:00,36,R,ugm-3
04-02-2010,15:00,52,R,ugm-3
04-02-2010,16:00,58,R,ugm-3
04-02-2010,17:00,58,R,ugm-3
04-02-2010,18:00,52,R,ugm-3
04-02-2010,19:00,50,R,ugm-3
04-02-2010,20:00,46,R,ugm-3
04-02-2010,21:00,46,R,ugm-3
04-02-2010,22:00,44,R,ugm-3
04-02-2010,23:00,38,R,ugm-3
04-02-2010,24:00,44,R,ugm-3
05-02-2010,01:00,40,R,ugm-3
05-02-2010,02:00,34,R,ugm-3
05-02-2010,03:00,30,R,ugm-3
05-02-2010,04:00,34,R,ugm-3
05-02-2010,05:00,34,R,ugm-3
05-02-2010,06:00,34,R,ugm-3
05-02-2010,07:00,36,R,ugm-3
05-02-2010,08:00,40,R,ugm-3
05-02-2010,09:00,38,R,ugm-3
05-02-2010,10:00,34,R,ugm-3
05-02-2010,11:00,30,R,ugm-3